COSMOS 2126

Satellite information

Favourite Embed

Satellite Type and Status

PAYLOADIN ORBIT

Key statistics

Satellite COSMOS 2126 at a glance.

Uptime

12509

Days in orbit

Revolutions

≈ 12.5

Per day

Orbit

LEO

Low Earth Orbit

Inclination

74.0

Latest

Satellite identification and parameters

Extended collection of information and parameters for COSMOS 2126.

Object identification

Identified? True

Debris? False

Object name: COSMOS 2126

International designator: 1991-009B

Object number (NORAD): 21101

Object ID (CCSDS): 21101

Country: COMMONWEALTH OF INDEPENDENT STATES (CIS)

Current information (Y/N): Y

RCS size: MEDIUM

Orbital parameters

Period: 115.564 minutes

Inclination: 74.0299 deg

SMA: 7859.154 km

Apoapsis: 1496.297 km

Periapsis: 1465.742 km

RAAN: 254.4715 deg

Eccentricy: 0.0019439

Argument of periapsis: 302.1322 deg

Mean anomaly: 57.784 deg

Mean motion: 12.46060274 rev/day

Mean motion (dot): -0.00000022 rev/day2

B* drag term: -0.000041747 1/REarth

Two-line elements (TLE)

Creation date: May 12, 2025, 2:31 a.m.

Reference frame: TEME

Reference center: EARTH

Epoch: May 11, 2025, 7:14 p.m. UTC

TLE line 0: 0 COSMOS 2126

TLE line 1: 1 21101U 91009B 25131.80176343 -.00000022 00000-0 -41747-4 0 9991

TLE line 2: 2 21101 74.0299 254.4715 0019439 302.1322 57.7840 12.46060274557713

Live tracking on map

Real-time ground track for satellite COSMOS 2126.

In-orbit conjunctions

There are no conjunctions computed for COSMOS 2126, at the moment. Check back to stay up to date, as we update our databases every day.

Go to all conjunctions

Associated space launch

Military communications satellites

COSMOS 2126 was lifted into orbit during the mission ‘Kosmos-3M | Strela-1M 353-360’, on board a Kosmos-3M space rocket.

The launch took place on Feb. 12, 1991, 2:44 a.m. from 133/3 (133L).

For more information about the launch, click the button.

Launch to space Kosmos-3M | Strela-1M 353-360
Kosmos-3M | Strela-1M 353-360

Agency: N/A

Status: Launch Successful

Launch date: Feb. 12, 1991, 2:44 a.m. UTC

Rocket: Kosmos-3M

Launch pad: 133/3 (133L)

Location: Plesetsk Cosmodrome, Russian Federation

...

Latest news about this satellite

There are no fresh news available about this satellite. Check back as we update our databases every day.


Newsletter sign-up

Weekly statistics, charts and insights to help you stay on top of the space industry.